Temp
15 15 15 15 16 16 16 15 15 15 14 14 14 14 14 14 14 14 14 13 13 13 13 13 13 12 12 12 12 11 11 11 11 11 11 11 10 10 10 10 10 10 10 10 10 10 10 10 10 10 10 10 10 10 10 10 10 10 10 10 10 10 10
14 15 15 15 16 16 16 16 16 15 15 15 14 14 14 14 14 14 14 14 13 13 13 13 13 13 12 12 12 12 11 11 11 11 11 11 11 10 10 10 10 10 10 10 10 10 10 10 10 10 10 10 10 10 10 10 10 10 10 10 10 10 10
14 15 15 15 16 16 16 16 16 16 15 15 15 14 14 14 14 14 14 14 14 13 13 13 13 13 13 12 12 12 12 11 11 11 11 11 11 11 10 10 10 10 10 10 10 10 10 10 10 10 10 10 10 10 10 10 10 10 10 10 10 10 10
15 15 15 16 16 16 16 16 16 16 16 15 15 15 15 14 14 14 14 14 14 14 13 13 13 13 13 13 12 12 12 12 12 11 11 11 11 11 11 11 10 10 10 10 10 10 10 10 10 10 10 10 10 10 10 10 10 10 10 11 11 11 10
15 15 15 16 16 16 16 16 16 16 16 16 15 15 15 14 14 14 14 14 14 14 13 13 13 13 13 13 12 12 12 12 12 12 11 11 11 11 11 11 11 11 11 10 10 11 11 11 11 11 11 11 11 11 11 10 10 10 11 11 11 11 10
15 16 16 16 16 16 16 17 17 17 16 16 16 15 15 15 14 14 14 14 14 14 13 13 13 13 13 13 13 12 12 12 12 12 12 11 11 11 11 11 11 11 11 11 11 11 11 11 11 11 11 11 11 11 11 11 11 10 11 11 11 11 11
15 16 16 16 16 16 16 17 17 17 17 16 16 16 15 15 15 14 14 14 14 14 14 14 14 13 13 13 13 13 12 12 12 12 12 11 11 11 11 11 11 11 11 11 11 11 11 11 11 11 11 11 11 11 11 11 11 11 11 11 11 11 11
15 16 16 16 16 16 17 17 17 17 17 16 16 16 16 15 15 15 14 14 14 14 14 14 14 14 14 13 13 13 13 12 12 12 12 12 12 11 11 11 11 11 11 11 11 11 11 11 11 11 11 11 11 11 11 11 11 11 11 11 11 11 11
16 16 17 17 16 16 17 17 17 17 17 17 16 16 16 16 15 15 15 14 14 14 14 14 14 14 14 14 13 13 13 13 12 12 12 12 12 12 12 11 12 12 12 12 11 11 11 11 11 11 11 11 11 11 11 11 11 11 11 11 11 11 11
16 16 17 17 17 17 17 17 17 17 17 17 17 16 16 16 16 15 15 14 14 14 14 14 14 14 14 14 14 13 13 13 13 12 12 12 12 12 12 12 12 12 12 12 12 12 11 11 11 11 11 11 11 11 11 11 11 11 11 11 11 11 11
16 16 17 17 17 17 17 17 17 17 17 17 17 17 16 16 16 16 15 15 15 14 14 14 14 14 14 14 14 13 13 13 13 13 12 12 12 12 12 12 12 12 12 12 12 12 12 12 12 12 12 12 12 12 12 12 12 11 11 11 11 11 11
16 16 17 17 17 17 17 17 17 17 17 17 17 17 17 17 16 16 16 15 15 15 14 14 14 14 14 14 14 14 14 13 13 13 13 13 12 12 12 12 12 12 12 12 12 12 12 12 12 12 12 12 12 12 12 12 12 12 12 11 11 11 11
16 16 16 17 17 17 17 17 17 17 17 17 17 17 17 17 16 16 16 16 15 15 15 14 14 14 14 14 14 14 14 14 13 13 13 13 13 13 12 12 12 12 12 12 12 12 12 12 12 12 12 12 12 12 12 12 12 12 12 12 11 11 11
15 16 16 16 16 17 17 17 17 17 17 17 17 17 17 17 17 16 16 16 16 15 15 15 14 14 14 14 14 14 14 14 13 13 13 13 13 13 13 13 13 13 13 12 12 12 12 12 12 12 12 12 12 12 12 12 12 12 12 12 12 12 12
15 15 15 16 16 17 17 17 17 17 17 17 17 17 17 17 17 17 16 16 16 16 15 15 15 14 14 14 14 14 14 14 14 13 13 13 13 13 13 13 13 13 13 13 12 13 13 12 12 12 12 12 12 12 12 12 12 12 12 12 12 12 12
15 15 15 15 16 16 17 17 17 17 17 17 17 17 17 17 17 17 17 17 16 16 16 15 15 14 14 14 14 14 14 14 14 13 13 13 13 13 13 13 13 13 13 13 13 13 13 13 13 13 13 12 12 12 12 12 12 13 12 12 12 12 12
15 15 15 15 15 16 16 17 17 17 17 17 17 17 17 17 17 17 17 17 17 16 16 16 15 15 14 14 14 14 14 14 14 14 13 13 13 13 13 13 13 13 13 13 13 13 13 13 13 13 13 13 12 12 12 12 13 13 12 12 12 12 12
15 15 15 15 15 16 16 16 17 17 17 17 17 17 17 17 17 17 17 17 17 17 16 16 15 15 15 14 14 14 14 14 14 14 13 13 13 13 13 13 13 13 13 13 13 13 13 13 13 13 13 13 13 13 13 13 13 12 12 12 12 12 12
15 15 15 15 16 16 16 16 16 17 17 17 18 18 18 17 18 18 17 17 17 17 16 16 16 15 15 14 14 14 14 14 14 14 14 13 13 13 13 13 13 13 13 13 13 13 13 13 13 13 13 13 13 13 13 13 13 12 12 12 12 12 12
15 15 15 15 16 16 16 16 16 17 17 18 18 18 18 18 18 18 17 17 17 17 17 16 16 15 15 15 15 15 15 14 14 14 14 13 13 13 13 13 13 13 13 13 13 13 13 13 13 13 13 13 13 13 13 13 13 12 12 12 12 12 12
15 15 15 15 16 16 16 16 16 17 17 18 18 18 18 18 18 18 17 17 17 17 17 16 16 15 15 15 15 15 15 14 14 14 13 13 13 13 13 13 13 13 13 13 13 13 13 13 13 13 13 13 13 13 13 13 13 13 12 12 12 12 12
14 15 15 16 16 16 16 17 17 17 17 18 18 18 18 18 18 18 17 17 17 17 17 16 16 16 15 16 15 15 15 14 14 14 13 13 13 13 13 13 13 13 13 13 13 13 13 13 13 13 13 13 13 13 13 13 13 13 13 12 12 12 12
14 15 15 15 16 16 17 17 17 17 17 18 18 18 18 18 18 18 17 17 17 17 17 16 16 16 16 16 16 15 15 14 14 14 14 13 13 13 13 13 13 13 13 13 14 14 14 14 14 14 14 14 13 13 13 13 13 13 13 12 12 12 12
14 14 15 15 16 16 17 17 17 18 18 18 18 18 18 18 18 18 17 17 17 17 17 16 16 16 16 16 16 15 15 14 14 14 14 14 13 13 13 13 13 13 14 14 14 14 14 14 14 14 14 14 14 14 13 13 13 13 13 13 12 12 12
14 14 15 15 16 16 17 18 18 18 18 18 18 18 18 18 18 18 17 17 17 17 17 16 16 16 16 16 16 15 15 14 14 14 14 14 14 13 13 13 13 13 13 14 14 14 14 14 14 14 14 14 14 14 14 13 13 13 13 13 13 13 13
14 14 14 15 15 16 17 17 18 18 18 18 19 18 18 18 18 18 17 17 17 17 17 16 16 16 16 16 16 15 15 15 15 14 14 14 14 13 13 13 13 13 13 14 14 14 14 14 14 14 14 14 14 14 14 14 14 14 13 13 13 13 13
14 14 15 15 15 16 16 17 17 18 18 18 19 18 18 18 18 18 17 17 17 17 17 16 16 16 16 16 16 16 16 15 15 15 15 14 14 14 14 13 13 14 14 14 14 14 14 14 14 14 14 14 14 14 14 14 14 14 14 14 13 13 13
14 14 15 15 15 15 15 16 16 17 17 18 18 18 18 18 18 18 18 17 17 17 16 16 16 16 16 16 16 16 16 16 15 15 15 15 14 14 14 14 14 14 14 14 14 14 14 14 14 14 14 14 14 14 14 14 14 14 14 14 14 14 14
14 14 14 14 14 15 15 16 16 16 16 17 18 18 18 18 18 18 18 17 17 17 16 16 16 16 16 16 16 16 16 16 16 15 15 15 15 15 14 14 14 14 14 14 14 14 14 14 14 14 14 14 14 14 14 15 14 14 14 14 14 14 14
13 14 14 14 14 14 15 16 16 16 16 16 17 17 17 17 18 18 18 17 17 16 16 16 16 16 16 16 16 16 16 16 16 16 16 15 15 15 15 15 15 14 14 14 14 14 14 14 14 14 14 14 14 15 15 15 15 15 15 15 15 14 14
12 13 14 14 13 14 15 15 16 16 16 16 17 17 17 17 18 17 17 17 16 16 16 16 16 16 16 17 17 17 16 16 16 16 16 15 15 15 15 15 15 15 15 14 14 14 14 14 14 14 15 15 15 15 15 15 15 15 15 15 15 15 15
12 13 13 13 13 14 14 15 16 16 16 17 17 17 17 18 17 17 16 16 16 16 16 16 16 16 17 17 16 16 16 16 16 16 16 15 15 15 15 15 15 15 15 15 15 15 15 15 15 15 15 15 15 15 15 14 15 15 15 15 15 15 15
11 12 13 13 13 13 14 14 15 16 16 17 17 17 18 18 17 17 16 16 16 16 16 16 16 16 16 16 16 16 16 16 16 16 16 16 15 15 15 15 15 15 15 15 15 15 15 15 15 15 15 15 15 15 14 14 14 15 15 15 15 15 15
10 11 12 12 13 13 13 14 15 16 16 17 17 17 17 17 17 16 16 15 15 15 16 16 16 16 16 16 16 16 16 15 15 15 15 15 15 15 15 15 15 15 15 14 14 14 14 14 14 15 15 15 15 14 14 14 14 14 14 15 15 15 15
9 10 11 11 12 13 13 13 14 15 16 16 17 17 17 16 16 16 15 15 15 15 15 16 16 15 15 15 15 15 15 15 15 15 15 14 14 14 14 14 14 14 14 14 14 14 14 14 14 14 14 14 14 14 14 14 14 14 14 14 14 14 14
9 9 10 10 11 12 13 13 13 14 15 15 15 16 16 16 16 16 15 15 15 15 15 15 15 15 15 15 15 15 14 14 14 14 14 14 14 15 15 15 14 14 14 14 14 14 14 14 14 14 14 14 14 14 14 14 13 13 13 13 14 14 14
9 9 9 10 11 12 12 12 13 13 14 14 15 15 15 16 16 15 15 15 15 15 15 15 15 15 15 14 14 14 14 14 14 14 14 14 15 15 15 15 15 15 14 14 14 14 14 14 14 13 13 13 14 14 13 14 14 13 13 13 13 13 14
9 9 9 10 10 11 11 12 12 13 13 14 14 15 15 15 15 15 15 15 15 15 15 15 15 14 14 14 14 14 14 14 14 14 14 15 15 15 15 15 15 15 15 15 15 14 14 14 13 14 14 14 14 14 14 14 14 13 13 13 13 13 13
Height
3143 3145 3147 3149 3151 3153 3155 3158 3160 3162 3163 3165 3167 3169 3171 3173 3175 3177 3180 3182 3184 3186 3188 3191 3193 3195 3198 3200 3202 3205 3207 3209 3211 3214 3216 3218 3220 3221 3223 3225 3227 3229 3230 3232 3233 3234 3235 3236 3237 3238 3240 3241 3241 3242 3243 3243 3244 3244 3245 3246 3247 3248 3249
3140 3141 3144 3146 3147 3150 3153 3155 3157 3159 3161 3162 3164 3167 3169 3171 3173 3175 3177 3180 3182 3184 3186 3189 3191 3193 3196 3198 3200 3202 3205 3207 3209 3211 3213 3215 3217 3219 3221 3223 3225 3227 3229 3230 3231 3232 3234 3235 3236 3237 3238 3239 3240 3241 3242 3242 3243 3243 3244 3245 3246 3247 3247
3136 3138 3140 3142 3144 3148 3150 3152 3154 3156 3158 3159 3161 3164 3166 3168 3171 3173 3175 3178 3180 3182 3184 3186 3189 3191 3194 3196 3198 3200 3203 3205 3207 3209 3211 3213 3215 3217 3219 3221 3223 3225 3227 3228 3229 3231 3232 3233 3234 3236 3237 3238 3239 3239 3240 3241 3242 3242 3243 3244 3244 3245 3246
3132 3135 3137 3139 3142 3145 3147 3149 3151 3153 3155 3157 3159 3162 3164 3166 3169 3171 3173 3175 3178 3180 3182 3184 3187 3189 3191 3193 3196 3198 3200 3202 3204 3207 3209 3211 3213 3215 3217 3219 3221 3223 3224 3226 3227 3229 3230 3231 3233 3234 3236 3237 3237 3238 3239 3239 3240 3241 3241 3242 3243 3244 3245
3128 3131 3134 3136 3139 3142 3144 3146 3148 3150 3153 3155 3157 3159 3161 3164 3166 3168 3171 3173 3176 3178 3180 3182 3184 3187 3189 3191 3193 3196 3198 3200 3202 3205 3207 3208 3210 3212 3214 3216 3219 3221 3222 3224 3225 3226 3228 3229 3231 3233 3234 3235 3236 3237 3237 3238 3239 3239 3240 3241 3242 3243 3244
3125 3128 3131 3133 3136 3139 3141 3143 3145 3148 3151 3153 3155 3157 3159 3161 3163 3166 3168 3171 3173 3175 3177 3180 3182 3184 3186 3189 3191 3193 3196 3198 3200 3202 3204 3206 3208 3210 3212 3214 3216 3218 3220 3222 3223 3224 3226 3227 3229 3231 3232 3233 3234 3235 3236 3237 3237 3238 3239 3239 3240 3241 3242
3122 3124 3127 3131 3134 3137 3139 3141 3143 3145 3148 3150 3152 3154 3156 3158 3161 3163 3166 3168 3170 3172 3174 3177 3179 3181 3184 3186 3188 3191 3193 3196 3198 3200 3202 3204 3205 3207 3210 3212 3214 3216 3217 3219 3220 3222 3224 3225 3227 3229 3230 3232 3232 3233 3234 3235 3236 3236 3237 3238 3239 3240 3241
3119 3121 3125 3128 3132 3135 3137 3138 3140 3142 3145 3147 3148 3150 3153 3156 3158 3161 3163 3165 3167 3169 3171 3174 3176 3178 3181 3183 3186 3188 3191 3193 3195 3197 3199 3201 3203 3205 3207 3209 3211 3213 3214 3216 3218 3220 3221 3223 3225 3227 3228 3230 3230 3232 3233 3233 3234 3234 3235 3236 3237 3238 3239
3116 3118 3122 3126 3129 3132 3134 3135 3137 3139 3141 3143 3146 3148 3151 3153 3156 3158 3160 3163 3164 3166 3169 3171 3173 3176 3178 3180 3183 3186 3188 3190 3192 3195 3197 3199 3201 3203 3205 3207 3209 3210 3212 3214 3216 3217 3219 3221 3223 3224 3226 3227 3228 3230 3231 3231 3232 3233 3233 3234 3235 3236 3237
3113 3116 3120 3124 3127 3129 3131 3132 3133 3135 3137 3140 3143 3146 3148 3151 3154 3156 3158 3160 3162 3164 3166 3168 3171 3173 3175 3178 3180 3183 3185 3187 3189 3192 3194 3196 3198 3200 3203 3205 3206 3208 3210 3212 3213 3215 3217 3219 3221 3222 3224 3225 3226 3228 3229 3230 3231 3231 3231 3232 3233 3234 3235
3111 3113 3117 3121 3124 3126 3128 3129 3130 3131 3134 3137 3141 3143 3145 3148 3151 3153 3155 3158 3160 3162 3164 3166 3168 3170 3172 3175 3177 3180 3182 3184 3186 3189 3191 3193 3196 3198 3201 3202 3204 3206 3208 3210 3211 3213 3215 3217 3218 3220 3222 3223 3224 3226 3227 3228 3229 3229 3230 3231 3231 3232 3233
3108 3110 3113 3117 3121 3123 3124 3125 3127 3128 3131 3134 3138 3140 3143 3146 3148 3151 3153 3155 3158 3160 3162 3164 3165 3167 3169 3172 3174 3176 3179 3181 3183 3186 3188 3191 3193 3196 3198 3200 3201 3203 3205 3207 3209 3211 3212 3214 3216 3218 3219 3221 3222 3223 3225 3225 3226 3227 3228 3229 3229 3230 3231
3105 3108 3111 3114 3117 3119 3120 3122 3123 3125 3128 3131 3135 3138 3140 3143 3146 3148 3150 3153 3155 3157 3159 3161 3163 3165 3167 3169 3171 3173 3176 3178 3180 3183 3186 3188 3190 3193 3195 3197 3199 3201 3203 3205 3207 3208 3210 3212 3214 3215 3217 3218 3219 3221 3222 3223 3224 3225 3226 3227 3227 3228 3229
3103 3105 3108 3110 3113 3115 3117 3119 3120 3122 3125 3127 3130 3133 3137 3140 3142 3145 3148 3150 3152 3154 3156 3158 3160 3162 3164 3166 3169 3171 3173 3176 3178 3180 3183 3186 3188 3190 3192 3194 3196 3198 3200 3202 3204 3206 3208 3210 3211 3213 3214 3216 3217 3218 3219 3220 3221 3222 3224 3225 3225 3227 3228
3100 3102 3104 3106 3109 3111 3113 3115 3117 3119 3122 3124 3126 3129 3132 3136 3138 3141 3144 3146 3149 3151 3153 3155 3157 3159 3161 3164 3166 3168 3171 3173 3175 3178 3180 3182 3185 3187 3189 3191 3193 3195 3197 3199 3202 3203 3205 3207 3209 3210 3212 3213 3214 3215 3216 3217 3218 3219 3221 3223 3224 3225 3226
3096 3098 3100 3103 3105 3107 3109 3112 3114 3116 3118 3121 3123 3125 3128 3131 3134 3137 3140 3143 3145 3148 3150 3152 3155 3157 3159 3161 3163 3165 3168 3170 3172 3175 3177 3179 3182 3184 3186 3188 3190 3192 3194 3197 3199 3201 3202 3204 3206 3207 3209 3210 3211 3212 3213 3214 3215 3217 3219 3221 3222 3223 3223
3093 3095 3097 3099 3101 3103 3105 3108 3110 3112 3115 3117 3120 3123 3125 3127 3131 3134 3137 3139 3142 3145 3147 3150 3152 3154 3156 3158 3160 3162 3165 3167 3170 3172 3174 3176 3179 3181 3183 3186 3188 3190 3192 3194 3196 3198 3200 3201 3203 3204 3206 3207 3208 3210 3210 3212 3213 3215 3217 3218 3219 3220 3221
3089 3092 3094 3096 3097 3100 3102 3104 3106 3108 3111 3114 3117 3120 3122 3124 3127 3130 3133 3135 3138 3141 3144 3146 3149 3152 3154 3155 3157 3159 3162 3165 3167 3169 3171 3173 3176 3178 3181 3183 3185 3187 3189 3191 3193 3195 3197 3198 3200 3201 3203 3204 3205 3207 3208 3209 3210 3212 3214 3216 3217 3218 3219
3087 3089 3091 3092 3094 3096 3099 3101 3103 3105 3108 3111 3114 3116 3119 3122 3124 3127 3130 3133 3135 3137 3140 3143 3146 3149 3151 3153 3154 3157 3159 3162 3164 3166 3168 3171 3173 3175 3177 3179 3182 3184 3186 3188 3190 3192 3193 3195 3197 3198 3200 3201 3202 3204 3205 3206 3208 3210 3212 3213 3214 3215 3216
3085 3087 3089 3090 3092 3093 3095 3097 3099 3101 3105 3108 3110 3114 3116 3119 3121 3124 3126 3128 3131 3133 3136 3139 3142 3145 3147 3150 3152 3154 3157 3159 3161 3164 3166 3168 3170 3172 3174 3176 3179 3181 3183 3185 3187 3188 3190 3192 3193 3195 3197 3198 3200 3201 3203 3204 3205 3207 3209 3210 3212 3213 3214
3082 3085 3086 3088 3089 3091 3092 3093 3095 3098 3102 3105 3108 3110 3112 3115 3118 3120 3122 3124 3127 3130 3132 3135 3138 3141 3144 3147 3150 3152 3154 3156 3159 3161 3163 3165 3167 3169 3171 3173 3175 3178 3180 3182 3183 3185 3187 3189 3190 3192 3193 3195 3197 3198 3200 3201 3203 3204 3206 3208 3209 3210 3211
3079 3081 3083 3084 3086 3087 3088 3090 3092 3095 3099 3102 3104 3106 3109 3112 3114 3117 3119 3121 3123 3126 3129 3132 3135 3138 3141 3144 3147 3150 3152 3154 3156 3158 3160 3162 3164 3166 3168 3170 3172 3174 3176 3178 3180 3182 3184 3186 3187 3189 3190 3192 3194 3195 3197 3199 3200 3202 3203 3205 3206 3207 3208
3076 3077 3079 3080 3081 3082 3084 3086 3089 3092 3095 3097 3099 3102 3106 3109 3111 3113 3115 3117 3120 3123 3126 3128 3131 3135 3138 3141 3144 3147 3149 3151 3153 3155 3157 3159 3161 3163 3165 3167 3169 3171 3173 3175 3177 3178 3180 3183 3184 3186 3188 3190 3191 3192 3194 3196 3198 3199 3201 3202 3203 3204 3205
3072 3073 3075 3076 3076 3077 3079 3082 3085 3088 3091 3093 3096 3099 3102 3105 3108 3110 3112 3114 3117 3120 3122 3125 3129 3132 3135 3139 3142 3144 3147 3149 3150 3152 3154 3156 3158 3160 3162 3164 3166 3168 3170 3172 3174 3176 3178 3180 3182 3183 3185 3187 3188 3189 3192 3194 3195 3196 3198 3199 3200 3201 3202
3069 3070 3071 3071 3072 3073 3074 3077 3080 3083 3086 3089 3092 3096 3099 3101 3105 3108 3109 3111 3114 3117 3119 3123 3126 3129 3133 3136 3139 3142 3144 3146 3148 3150 3152 3154 3156 3158 3160 3162 3164 3166 3168 3170 3171 3173 3175 3177 3179 3180 3182 3183 3185 3186 3189 3191 3192 3193 3195 3196 3198 3199 3199
3065 3067 3067 3068 3068 3068 3069 3071 3074 3077 3081 3085 3089 3093 3096 3098 3102 3105 3107 3109 3111 3114 3117 3121 3124 3127 3131 3133 3136 3139 3141 3143 3146 3147 3149 3151 3153 3155 3157 3159 3161 3163 3165 3167 3168 3170 3172 3174 3176 3177 3179 3180 3181 3183 3185 3187 3188 3190 3192 3193 3195 3196 3196
3062 3063 3064 3064 3064 3064 3065 3066 3068 3072 3076 3081 3085 3089 3092 3095 3099 3102 3104 3106 3109 3112 3116 3120 3122 3125 3128 3130 3134 3136 3139 3141 3143 3145 3147 3149 3151 3153 3154 3156 3158 3160 3162 3164 3165 3167 3169 3171 3172 3174 3175 3177 3178 3180 3182 3183 3185 3186 3188 3190 3191 3192 3193
3059 3061 3061 3061 3061 3061 3062 3063 3065 3067 3071 3076 3080 3085 3089 3092 3096 3099 3102 3104 3108 3112 3115 3117 3120 3122 3125 3128 3131 3134 3136 3138 3140 3142 3144 3146 3148 3150 3152 3154 3155 3157 3159 3161 3163 3164 3166 3167 3169 3171 3172 3174 3175 3176 3178 3180 3181 3183 3185 3186 3188 3188 3189
3057 3058 3058 3058 3058 3058 3059 3061 3062 3064 3068 3072 3076 3081 3085 3089 3093 3097 3100 3103 3107 3110 3112 3114 3117 3120 3122 3126 3129 3131 3133 3135 3137 3139 3141 3143 3145 3147 3149 3151 3152 3154 3156 3158 3160 3161 3163 3164 3166 3168 3169 3170 3172 3173 3174 3176 3178 3179 3181 3183 3184 3185 3186
3054 3055 3056 3055 3055 3056 3058 3059 3061 3063 3066 3069 3073 3078 3082 3086 3091 3095 3098 3101 3104 3106 3109 3112 3114 3117 3120 3123 3126 3129 3131 3132 3134 3136 3138 3140 3142 3144 3146 3148 3150 3151 3153 3155 3156 3158 3159 3161 3163 3164 3166 3167 3168 3169 3171 3172 3174 3176 3177 3179 3180 3182 3183
3051 3053 3053 3053 3053 3054 3056 3058 3059 3062 3064 3067 3071 3076 3080 3084 3089 3092 3096 3098 3101 3103 3106 3109 3111 3114 3118 3120 3123 3126 3128 3130 3131 3133 3135 3137 3139 3141 3143 3145 3146 3148 3150 3151 3153 3154 3156 3158 3159 3161 3162 3164 3165 3167 3168 3170 3171 3173 3174 3176 3177 3178 3180
3049 3051 3051 3052 3052 3053 3054 3056 3057 3060 3063 3066 3070 3074 3078 3082 3086 3089 3092 3095 3098 3101 3103 3106 3109 3112 3115 3117 3120 3123 3125 3127 3129 3131 3133 3134 3136 3138 3140 3142 3143 3145 3147 3148 3150 3151 3153 3155 3156 3157 3159 3161 3162 3164 3166 3167 3168 3170 3171 3172 3174 3175 3176
3048 3049 3050 3050 3050 3051 3053 3054 3055 3058 3061 3065 3068 3072 3075 3079 3083 3087 3090 3093 3096 3098 3101 3104 3107 3110 3112 3115 3118 3120 3123 3125 3126 3128 3130 3132 3134 3135 3137 3139 3140 3142 3144 3146 3147 3148 3150 3152 3153 3154 3156 3158 3159 3161 3163 3164 3165 3166 3168 3169 3170 3171 3173
3046 3048 3048 3049 3049 3050 3051 3052 3054 3056 3060 3063 3066 3070 3073 3077 3081 3084 3088 3090 3093 3096 3098 3101 3104 3108 3111 3114 3116 3118 3120 3122 3124 3126 3128 3129 3131 3133 3134 3136 3137 3139 3141 3143 3144 3146 3148 3149 3150 3152 3153 3155 3157 3159 3160 3160 3161 3163 3164 3165 3167 3168 3169
3044 3047 3048 3048 3049 3049 3050 3051 3052 3054 3058 3061 3064 3068 3071 3074 3078 3082 3085 3087 3090 3094 3097 3099 3103 3106 3109 3111 3114 3116 3118 3120 3122 3123 3125 3127 3128 3130 3132 3133 3135 3137 3139 3140 3142 3144 3145 3147 3148 3149 3151 3153 3155 3155 3156 3157 3158 3160 3161 3162 3164 3165 3166
3042 3045 3047 3048 3048 3048 3048 3050 3051 3053 3056 3059 3062 3065 3069 3072 3076 3079 3082 3085 3088 3091 3094 3097 3101 3103 3106 3109 3111 3113 3115 3117 3119 3121 3123 3124 3126 3127 3129 3131 3133 3134 3136 3138 3139 3141 3143 3144 3145 3147 3149 3150 3151 3152 3153 3154 3155 3156 3158 3159 3160 3161 3162
3040 3043 3046 3047 3047 3047 3048 3048 3050 3052 3054 3057 3060 3063 3067 3071 3074 3077 3079 3082 3085 3089 3092 3095 3099 3101 3104 3107 3109 3111 3113 3115 3117 3119 3121 3122 3124 3126 3128 3129 3131 3132 3134 3135 3137 3139 3140 3142 3143 3144 3146 3147 3148 3149 3150 3151 3152 3153 3154 3155 3156 3157 3158
3038 3041 3044 3046 3046 3047 3047 3048 3049 3050 3052 3055 3058 3061 3065 3068 3071 3074 3077 3080 3083 3087 3090 3093 3096 3099 3102 3104 3106 3109 3112 3114 3115 3117 3119 3121 3122 3124 3126 3127 3128 3130 3131 3133 3134 3136 3138 3139 3140 3141 3142 3143 3145 3146 3147 3148 3149 3150 3151 3152 3153 3154 3155
Wind_Speed
28 27 27 27 26 24 22 24 25 26 28 27 26 25 25 26 29 30 31 31 32 32 31 31 31 31 32 32 32 31 31 31 30 29 29 28 29 29 29 28 27 26 25 23 22 20 20 19 18 17 16 14 13 12 11 10 10 10 11 11 10 9 8
29 29 28 28 27 25 23 24 26 27 28 29 28 27 26 25 27 28 29 30 30 31 31 31 31 31 31 31 31 31 31 30 30 30 29 29 29 29 29 29 28 27 26 25 24 23 22 21 21 19 17 16 15 14 13 12 12 12 12 13 12 11 10
30 31 31 30 28 25 24 25 27 28 29 30 30 29 28 26 26 27 27 28 29 30 30 31 31 31 31 31 30 30 30 30 30 30 29 29 28 29 29 29 29 28 27 27 26 25 24 24 23 21 19 18 17 16 15 14 14 14 14 14 14 13 12
32 33 32 30 28 25 24 25 27 28 29 30 31 29 29 28 27 26 27 27 28 29 29 29 30 31 32 31 30 29 30 30 30 29 29 28 28 28 29 30 29 29 28 28 28 27 26 26 24 22 20 20 19 18 17 16 16 16 16 16 16 15 14
35 35 33 31 28 25 24 25 27 29 29 30 30 30 30 30 29 28 27 26 27 28 29 29 30 31 32 32 31 30 30 30 30 30 29 29 29 29 30 30 30 29 29 28 29 28 28 27 25 23 22 21 20 19 19 18 17 17 17 17 17 16 16
37 37 35 32 29 26 24 23 26 29 30 31 31 31 32 32 31 30 28 27 27 28 29 29 29 30 31 32 32 31 31 30 30 31 31 30 30 30 30 29 29 29 29 29 30 30 29 28 27 25 23 22 22 21 20 19 18 18 18 18 17 17 17
36 38 36 33 29 26 24 22 24 29 31 31 32 32 33 33 32 31 30 29 28 28 29 29 29 29 30 31 32 32 31 31 30 31 31 32 31 30 30 29 29 30 30 31 31 30 30 29 28 26 25 24 23 22 20 20 19 19 19 19 18 18 18
35 37 37 33 30 27 24 22 24 29 32 33 33 34 35 34 33 32 32 31 30 30 29 29 29 29 29 30 30 31 31 31 31 31 31 32 32 30 30 29 30 30 31 31 31 31 31 30 29 28 26 25 24 23 21 21 20 19 19 19 18 17 18
31 37 36 32 30 27 24 23 24 29 34 35 34 35 35 34 34 34 33 33 32 31 30 30 29 29 28 29 29 29 30 31 32 32 32 32 32 31 30 30 30 30 31 31 31 31 31 31 30 29 27 27 25 24 22 21 20 20 20 18 17 17 18
27 34 36 32 30 26 23 24 25 29 35 36 35 35 35 35 34 34 34 34 33 32 31 31 31 30 29 28 28 29 30 31 32 32 32 32 32 31 30 30 29 29 30 31 31 31 31 31 30 29 28 27 26 24 23 21 21 21 20 19 18 18 18
24 28 32 32 29 25 24 26 26 29 35 37 36 36 36 35 34 34 34 34 33 32 32 32 32 32 30 29 29 30 30 31 31 32 32 32 32 31 31 30 30 29 30 31 31 31 30 30 30 29 28 27 26 24 23 22 21 21 21 20 19 19 19
23 23 26 29 29 26 26 27 26 28 35 37 37 37 37 35 34 34 34 34 34 33 33 33 33 33 32 31 30 30 30 31 32 32 31 32 32 32 32 31 31 29 29 30 30 30 30 30 29 28 27 26 26 25 23 23 22 21 21 21 20 20 20
23 22 24 26 28 28 29 28 25 26 33 37 37 38 38 36 34 34 34 34 34 34 33 33 33 33 32 31 31 31 31 31 32 32 31 31 31 32 32 32 32 30 29 29 30 30 29 29 29 28 28 27 27 26 25 24 23 22 22 22 22 20 21
20 20 22 25 27 28 28 28 25 23 28 35 38 38 37 36 35 34 34 34 34 35 34 33 33 33 32 32 32 31 30 30 31 31 30 30 31 31 32 33 32 31 30 30 30 29 29 29 29 29 29 28 28 27 26 25 24 24 23 23 23 21 21
12 13 15 19 23 26 26 26 26 24 24 30 37 39 38 37 37 35 35 35 35 35 35 34 34 34 33 32 32 31 30 30 31 31 31 31 31 31 31 32 32 32 31 30 30 29 28 28 28 28 29 29 29 29 28 27 26 25 23 23 23 22 21
9 10 10 12 16 21 24 24 25 26 24 25 30 36 39 39 38 36 35 36 36 35 35 35 35 34 33 32 31 31 30 29 30 31 31 31 30 30 30 30 31 32 31 31 31 30 29 28 28 28 28 28 29 29 29 28 27 25 23 23 22 22 22
12 11 10 10 12 17 22 23 24 26 26 25 26 31 37 39 38 36 36 36 36 36 35 35 34 34 33 32 31 31 30 29 29 30 31 31 30 29 29 29 30 31 31 31 31 31 31 29 29 28 27 27 28 28 28 28 27 25 24 23 23 23 23
14 13 12 12 13 15 20 24 26 27 28 27 26 27 33 38 38 36 36 36 35 36 36 35 35 34 34 33 32 31 30 28 28 28 30 31 31 30 29 29 29 29 29 29 30 31 31 30 30 29 28 28 28 27 27 27 26 25 24 24 23 23 23
15 15 14 14 15 17 19 22 26 29 29 29 29 27 30 36 39 36 34 35 35 35 36 36 35 35 35 33 31 31 30 29 28 28 28 30 30 30 30 30 29 28 28 28 28 29 30 30 30 29 29 28 28 27 26 25 24 24 24 24 24 24 24
18 17 16 16 18 20 21 23 26 31 32 31 31 29 28 32 38 36 34 35 35 35 36 36 36 36 36 33 30 28 29 30 29 28 28 28 29 30 31 30 30 29 28 28 28 28 29 29 29 29 29 29 28 26 25 24 23 22 23 23 24 24 25
20 18 17 16 18 21 24 27 29 32 34 33 33 33 30 30 35 36 35 35 36 36 37 37 37 37 36 33 29 27 28 29 30 29 29 28 28 29 30 30 30 30 29 29 29 28 28 29 29 29 29 29 28 27 25 24 22 21 22 23 23 24 25
22 20 17 16 17 20 24 29 32 34 35 35 34 34 32 31 34 35 34 36 37 37 38 38 38 38 36 33 30 28 29 29 29 29 29 29 29 29 29 30 31 31 30 30 30 30 29 29 29 29 29 29 28 27 26 24 22 21 21 23 23 24 25
25 21 19 18 18 19 24 30 34 35 37 37 36 35 33 33 33 32 33 37 38 38 39 40 40 38 36 33 31 30 30 31 31 30 29 28 28 29 30 30 31 31 31 30 30 31 30 29 29 29 29 28 28 28 26 24 23 22 22 23 25 25 26
26 23 21 20 18 19 27 33 36 38 39 39 39 37 36 35 33 30 32 37 39 39 40 41 40 38 35 33 33 31 32 33 32 31 30 28 27 28 29 29 30 30 30 31 31 31 30 29 29 29 29 28 29 29 27 25 25 24 24 25 26 27 27
27 26 25 22 19 21 29 36 39 41 42 42 42 40 38 37 34 31 32 37 39 40 41 41 39 37 35 34 34 33 33 33 33 32 31 29 28 28 29 29 29 29 30 31 31 31 30 29 29 29 29 29 30 29 28 27 27 27 26 27 28 28 29
29 27 26 25 23 22 27 33 40 43 44 44 44 42 40 39 36 32 32 36 39 40 41 40 38 36 35 35 35 34 33 33 33 32 31 30 28 29 30 30 30 29 30 30 30 30 29 29 28 28 29 29 29 29 28 28 29 28 28 28 29 30 31
30 27 25 24 22 21 24 28 35 41 43 46 46 44 42 41 38 33 32 35 38 39 39 38 37 36 36 35 34 33 32 33 33 34 33 31 29 29 29 28 28 28 29 29 29 29 28 28 28 28 28 28 28 29 29 29 29 29 29 29 31 32 33
29 25 23 20 18 19 22 25 30 36 42 46 47 45 44 43 37 32 31 33 36 37 38 38 37 36 36 35 34 32 32 33 33 34 34 33 32 30 29 28 27 27 27 27 27 27 27 27 26 27 27 27 28 29 29 29 29 30 29 30 32 33 34
27 23 19 17 16 20 23 26 30 34 38 41 44 45 44 40 34 30 30 32 35 38 39 38 37 35 35 35 34 33 33 33 33 33 33 33 33 32 31 30 30 29 28 28 28 28 28 27 27 27 27 27 28 28 29 29 29 29 30 30 32 34 35
25 20 16 15 17 20 24 27 32 35 36 37 39 41 38 34 30 30 31 34 38 41 40 38 36 35 34 34 34 33 33 32 32 32 33 33 33 33 33 33 32 32 31 31 32 32 31 30 30 29 29 29 29 29 29 28 28 28 29 30 31 33 34
20 15 14 15 18 21 25 27 30 33 34 34 36 35 32 31 31 32 35 39 41 41 40 38 35 34 34 34 34 34 33 32 32 32 32 33 33 34 34 34 34 34 34 34 34 34 33 33 33 32 32 31 31 30 29 28 27 28 29 29 30 31 32
16 12 12 16 19 23 26 28 30 31 32 33 34 34 32 32 33 37 40 42 42 41 39 37 35 34 35 34 33 32 32 31 31 32 32 32 32 33 33 34 34 34 34 34 34 34 34 34 34 34 33 32 32 31 29 29 29 29 29 29 29 30 31
13 11 13 17 20 24 27 29 31 32 32 33 34 35 35 35 38 42 43 42 41 40 38 36 36 35 34 32 30 29 29 29 29 29 29 29 30 31 31 32 32 32 32 32 32 33 33 33 33 33 33 33 32 31 31 30 31 31 31 31 31 31 30
12 11 14 17 21 25 27 29 31 33 34 36 37 37 38 40 43 44 43 42 41 40 38 37 35 33 30 28 27 26 26 26 26 27 27 27 27 28 28 29 29 30 29 30 30 30 30 30 30 30 30 29 29 29 29 29 30 31 32 32 31 31 32
14 13 14 15 18 25 28 29 31 35 37 38 40 40 42 45 46 45 44 43 41 39 37 36 33 30 29 27 26 26 26 26 26 27 27 27 26 26 27 27 27 27 27 27 28 28 27 27 27 27 26 26 26 26 27 27 27 28 29 29 29 30 31
16 16 18 17 16 22 28 30 31 36 38 39 42 44 46 47 47 46 45 43 41 39 36 34 32 31 30 28 27 26 26 26 27 27 26 26 25 24 23 23 23 23 24 24 24 24 25 25 25 25 25 24 25 26 27 26 26 27 27 28 28 29 28
19 19 22 22 17 18 25 29 32 35 38 40 43 46 48 47 46 46 45 43 41 39 36 33 33 31 29 28 27 26 26 26 26 25 25 24 22 20 20 21 21 21 22 22 21 21 22 23 24 25 26 26 25 26 27 27 27 27 27 27 28 28 28
24 22 24 26 23 19 21 26 30 33 37 41 43 45 47 48 47 46 45 43 40 38 37 35 34 32 30 29 27 25 25 26 25 24 23 22 20 20 21 22 22 22 22 22 22 22 23 24 25 25 26 26 26 26 26 26 26 26 26 27 28 29 30
Wind_Direction
230 228 227 229 227 227 225 217 215 215 216 219 220 220 221 220 219 219 218 217 217 218 217 216 216 216 217 218 219 219 219 218 217 218 218 219 220 221 221 220 220 219 218 219 218 216 213 213 215 216 217 220 223 227 231 236 240 236 230 225 222 223 224
228 228 226 229 229 226 224 218 214 214 216 219 220 220 221 221 220 219 218 217 218 219 219 218 217 217 217 217 218 218 218 218 217 217 218 219 220 222 223 222 222 221 219 219 219 217 215 214 215 216 218 220 223 228 232 237 241 240 236 231 227 226 226
225 227 225 227 228 225 224 221 218 216 216 218 219 219 220 220 220 219 218 218 217 218 219 219 219 218 218 218 218 217 217 217 217 217 217 218 219 221 223 223 223 222 219 219 219 218 216 217 217 217 219 221 224 230 235 238 241 242 241 237 232 230 228
225 225 225 227 227 226 228 226 222 220 219 220 220 219 219 220 220 220 219 218 218 218 219 219 219 219 219 219 219 218 217 216 216 216 216 217 217 219 221 222 222 222 219 218 219 219 219 219 219 218 220 222 226 231 236 239 242 243 243 240 237 234 231
228 225 225 227 227 227 230 229 225 222 221 222 222 219 218 219 220 221 219 217 217 218 220 221 221 221 221 220 220 219 217 217 216 215 215 216 216 216 219 220 221 221 219 219 220 221 221 222 221 220 221 223 227 232 237 240 243 246 245 243 240 237 234
227 226 224 227 227 227 230 231 227 223 222 223 223 219 217 217 218 219 220 219 217 217 219 221 221 223 223 222 222 220 218 217 217 216 216 217 217 217 218 219 219 220 219 218 220 222 223 224 224 223 223 225 228 232 236 240 244 246 246 245 242 239 237
226 225 224 226 227 226 229 230 226 224 222 223 224 221 218 217 217 217 218 219 219 219 218 218 219 221 222 223 223 222 221 219 218 217 217 217 218 218 218 219 218 218 218 218 220 222 224 226 226 226 225 227 231 233 236 240 243 245 247 247 245 241 238
226 227 225 225 225 225 228 226 221 222 223 222 224 222 218 217 216 215 216 217 219 220 219 218 218 219 220 221 223 223 222 221 219 219 218 218 219 219 218 218 218 218 218 218 220 222 224 226 228 228 228 230 234 236 237 239 241 244 246 247 247 243 239
225 228 226 224 222 224 229 225 216 218 221 223 224 222 220 218 216 214 214 215 217 220 221 220 220 220 220 221 222 223 222 222 221 220 219 219 220 219 218 219 219 219 219 219 220 222 225 227 229 230 230 232 235 236 237 238 240 244 246 247 247 244 239
222 226 224 221 221 223 229 229 220 215 218 221 223 223 222 220 216 214 213 214 216 218 220 221 221 222 222 222 223 223 223 223 222 220 220 220 221 220 218 219 220 220 219 219 220 222 224 227 229 231 232 233 235 236 236 238 241 245 247 247 245 243 239
219 223 221 218 218 221 228 232 227 216 214 219 222 223 224 222 218 216 215 215 216 216 218 219 221 223 224 223 223 224 224 224 224 222 221 221 222 221 219 220 221 221 220 219 221 222 224 226 228 230 232 233 236 237 239 242 244 245 247 246 244 241 239
209 215 216 216 217 223 231 234 230 216 212 216 221 223 224 224 221 219 217 216 215 215 216 218 220 223 224 224 224 225 225 224 224 224 222 221 222 221 221 221 222 222 221 221 222 223 224 226 228 230 233 235 238 240 242 246 247 246 245 245 243 240 238
216 216 215 216 219 226 231 231 229 219 210 212 217 222 224 225 224 222 220 218 216 216 216 217 219 222 224 224 225 226 226 225 225 225 223 221 222 222 221 221 222 223 222 222 223 225 225 226 229 231 234 236 239 243 245 246 247 245 243 243 243 241 238
223 223 223 222 222 225 229 228 227 222 211 207 210 216 221 224 225 224 222 221 219 217 216 216 218 222 224 225 225 227 227 226 225 225 223 222 222 222 222 222 223 224 223 223 225 226 227 228 229 232 235 237 239 242 245 245 245 244 241 241 243 242 240
213 219 226 229 227 226 227 226 224 221 216 209 207 210 216 220 221 222 223 222 221 219 218 217 218 221 223 225 226 227 227 227 226 224 222 222 222 222 223 222 223 224 224 224 225 227 228 228 229 231 234 236 238 240 242 243 243 242 241 240 242 243 242
209 212 221 231 233 229 227 229 226 222 221 217 210 209 212 216 219 220 222 223 222 220 219 218 218 220 223 226 226 226 226 226 226 223 222 222 222 222 223 222 223 224 225 225 225 227 228 229 230 231 232 234 236 237 239 241 241 242 241 240 240 241 242
217 219 223 228 233 232 231 232 230 226 224 220 216 211 210 214 218 218 219 221 221 220 219 218 219 220 223 226 226 225 224 224 225 223 221 221 222 222 222 223 223 224 226 226 226 227 229 230 231 232 233 235 236 237 238 240 241 241 240 239 237 238 240
227 227 228 225 224 227 231 231 229 228 225 221 219 215 211 212 214 214 215 218 219 218 216 217 217 218 221 224 226 224 222 221 222 221 220 220 220 221 222 223 224 224 225 226 226 227 229 231 232 233 235 236 236 237 238 239 240 239 238 238 236 235 238
237 235 231 228 223 222 227 231 231 228 224 223 223 220 215 212 212 212 213 215 217 216 213 214 215 216 218 222 225 224 221 219 219 219 219 218 219 220 221 223 224 224 225 226 226 227 228 230 231 233 234 236 236 237 238 239 239 237 235 235 234 233 236
243 242 241 237 227 223 226 230 230 226 222 224 224 222 219 214 211 210 209 210 212 212 210 211 212 213 216 219 222 223 221 219 219 218 217 216 217 218 220 222 224 224 225 226 226 226 227 228 230 231 232 234 235 235 236 237 237 234 232 232 232 232 233
246 249 252 245 234 231 232 230 227 224 222 223 224 224 223 216 209 206 204 205 209 210 209 208 208 211 214 216 217 217 218 218 218 217 216 215 215 216 217 220 222 223 224 225 226 226 226 227 229 230 231 232 233 233 233 234 234 230 228 228 230 232 232
254 256 256 251 247 244 237 228 224 223 222 223 225 226 225 218 209 205 203 205 208 209 207 206 206 209 213 214 213 213 214 215 215 216 216 216 216 216 216 218 220 221 222 224 225 226 226 226 227 228 229 230 231 231 230 230 230 227 224 225 228 232 233
260 260 257 259 262 251 233 225 223 222 221 222 224 225 226 221 213 209 205 205 207 208 206 204 205 208 212 212 212 213 214 214 215 214 214 215 215 216 217 218 219 220 221 222 224 225 224 224 226 228 229 229 230 231 229 228 228 226 223 223 227 232 234
260 263 263 267 269 250 230 224 222 220 219 221 223 225 225 222 217 212 208 206 207 208 206 203 204 208 210 211 213 214 214 215 217 216 215 215 217 218 219 219 220 220 221 222 224 225 225 224 226 228 229 229 230 230 229 228 227 226 224 224 227 231 235
260 265 268 269 270 253 234 226 223 221 219 218 219 222 223 221 219 216 210 207 207 207 205 203 203 206 208 211 214 216 217 218 219 219 219 218 219 220 221 222 222 222 222 223 224 226 225 225 226 227 228 229 229 230 229 228 227 226 224 225 227 231 234
261 265 268 270 270 256 236 225 223 221 217 214 214 217 219 219 219 216 211 208 208 206 203 202 202 203 206 211 216 219 221 221 222 222 221 219 219 220 221 222 223 222 222 223 224 226 226 225 225 226 227 228 229 229 228 228 228 226 224 226 229 231 234
262 265 269 271 264 245 228 222 221 219 215 212 212 213 216 219 219 215 212 211 209 205 201 199 199 200 204 211 216 219 220 221 222 223 222 219 217 217 217 217 218 218 219 220 222 223 224 224 223 224 225 227 228 229 228 227 227 227 225 226 229 231 234
263 266 270 267 247 223 214 216 216 213 210 209 209 209 214 218 217 213 213 213 208 202 197 196 197 200 206 212 215 217 218 220 222 223 223 221 218 216 214 213 212 213 213 215 217 218 219 220 221 221 222 224 226 227 227 226 226 227 226 226 228 231 233
261 265 269 258 227 208 206 209 207 202 199 201 203 205 211 215 214 212 213 209 202 197 194 195 199 203 208 212 215 217 219 221 222 223 223 223 221 220 219 217 217 217 216 216 218 219 219 220 221 221 222 223 224 226 226 225 225 226 227 226 228 231 233
260 264 264 245 217 202 202 204 201 195 191 192 197 202 207 208 208 209 207 200 195 193 194 198 203 206 209 211 214 216 219 221 223 224 224 225 224 224 224 223 223 223 223 223 225 225 225 224 225 225 224 224 224 225 226 225 224 225 226 227 228 230 232
259 260 251 232 210 198 197 196 194 192 189 189 194 198 199 200 202 201 195 191 191 193 197 202 204 205 208 210 213 215 218 221 223 224 225 226 226 227 228 227 227 227 227 227 227 227 227 227 226 226 226 225 226 226 227 226 225 225 226 227 228 230 232
254 250 234 220 205 197 193 189 187 187 187 189 194 196 195 196 196 192 187 188 191 195 199 203 203 204 207 209 212 214 216 219 222 224 225 226 227 229 229 230 230 230 229 229 229 229 229 229 229 229 228 228 228 228 229 229 228 227 228 228 229 230 231
240 232 223 213 203 195 190 187 185 186 187 188 191 195 196 194 191 188 187 189 192 195 198 200 202 205 207 208 210 212 213 216 219 222 224 225 226 228 229 229 230 229 229 229 229 229 230 230 231 231 231 231 231 231 232 233 233 233 233 233 234 234 234
219 214 215 210 202 195 189 184 183 183 185 188 189 191 193 190 187 187 187 188 190 193 195 198 201 202 202 202 204 207 208 211 215 217 219 222 224 226 227 228 229 229 229 229 230 231 231 232 233 234 234 235 235 235 235 236 236 237 238 239 240 241 241
214 206 200 197 201 197 188 182 182 181 182 185 188 188 186 185 185 186 186 187 190 192 195 198 197 196 196 198 201 204 206 209 212 214 217 219 222 223 224 226 228 230 231 231 232 233 234 235 236 237 236 236 236 235 235 236 237 239 241 242 244 245 245
213 202 187 179 190 199 192 184 182 181 181 183 185 184 183 184 185 186 187 187 189 191 195 196 194 192 193 196 200 205 209 212 214 215 215 216 218 219 219 222 226 228 229 230 231 233 234 235 236 237 236 235 234 234 236 236 237 239 241 243 245 247 248
202 196 190 184 182 192 195 190 184 182 182 183 183 183 183 185 187 187 188 188 189 191 193 193 191 192 194 197 203 208 209 208 207 207 207 208 209 209 211 215 219 221 224 226 227 229 232 234 235 236 236 235 233 234 236 236 237 239 242 244 246 248 250
192 190 192 194 188 185 191 192 188 184 183 182 183 184 184 186 187 188 188 188 189 190 191 190 190 191 193 195 198 200 201 201 199 199 203 207 207 208 211 215 218 220 222 223 224 225 226 229 232 233 235 235 234 234 237 239 239 240 242 244 246 248 250